Year,Month,Day,Hour,Minute,Value (Times are PST for temperature in C)
2015,09,29,00,00,8.70
2015,09,29,00,01,8.70
2015,09,29,00,02,8.70
2015,09,29,00,03,8.70
2015,09,29,00,04,8.60
2015,09,29,00,05,8.60
2015,09,29,00,06,8.60
2015,09,29,00,07,8.60
2015,09,29,00,08,8.50
2015,09,29,00,09,8.50
2015,09,29,00,10,8.50
2015,09,29,00,11,8.50
2015,09,29,00,12,8.50
2015,09,29,00,13,8.50
2015,09,29,00,14,8.50
2015,09,29,00,15,8.50
2015,09,29,00,16,8.50
2015,09,29,00,17,8.50
2015,09,29,00,18,8.50
2015,09,29,00,19,8.50
2015,09,29,00,20,8.40
2015,09,29,00,21,8.40
2015,09,29,00,22,8.40
2015,09,29,00,23,8.40
2015,09,29,00,24,8.40
2015,09,29,00,25,8.40
2015,09,29,00,26,8.40
2015,09,29,00,27,8.40
2015,09,29,00,28,8.30
2015,09,29,00,29,8.30
2015,09,29,00,30,8.30
2015,09,29,00,31,8.30
2015,09,29,00,32,8.30
2015,09,29,00,33,8.20
2015,09,29,00,34,8.20
2015,09,29,00,35,8.20
2015,09,29,00,36,8.10
2015,09,29,00,37,8.10
2015,09,29,00,38,8.10
2015,09,29,00,39,8.10
2015,09,29,00,40,8.10
2015,09,29,00,41,8.10
2015,09,29,00,42,8.10
2015,09,29,00,43,8.10
2015,09,29,00,44,8.10
2015,09,29,00,45,8.10
2015,09,29,00,46,8.00
2015,09,29,00,47,8.00
2015,09,29,00,48,8.00
2015,09,29,00,49,8.00
2015,09,29,00,50,8.00
2015,09,29,00,51,7.90
2015,09,29,00,52,7.90
2015,09,29,00,53,7.90
2015,09,29,00,54,7.90
2015,09,29,00,55,7.90
2015,09,29,00,56,7.90
2015,09,29,00,57,7.90
2015,09,29,00,58,7.90
2015,09,29,00,59,7.90
2015,09,29,01,00,7.90
2015,09,29,01,01,7.90
2015,09,29,01,02,7.80
2015,09,29,01,03,7.90
2015,09,29,01,04,7.90
2015,09,29,01,05,7.90
2015,09,29,01,06,7.80
2015,09,29,01,07,7.80
2015,09,29,01,08,7.80
2015,09,29,01,09,7.80
2015,09,29,01,10,7.80
2015,09,29,01,11,7.80
2015,09,29,01,12,7.70
2015,09,29,01,13,7.70
2015,09,29,01,14,7.70
2015,09,29,01,15,7.70
2015,09,29,01,16,7.60
2015,09,29,01,17,7.60
2015,09,29,01,18,7.60
2015,09,29,01,19,7.60
2015,09,29,01,20,7.50
2015,09,29,01,21,7.50
2015,09,29,01,22,7.50
2015,09,29,01,23,7.50
2015,09,29,01,24,7.50
2015,09,29,01,25,7.50
2015,09,29,01,26,7.50
2015,09,29,01,27,7.50
2015,09,29,01,28,7.50
2015,09,29,01,29,7.50
2015,09,29,01,30,7.50
2015,09,29,01,31,7.40
2015,09,29,01,32,7.40
2015,09,29,01,33,7.40
2015,09,29,01,34,7.30
2015,09,29,01,35,7.30
2015,09,29,01,36,7.30
2015,09,29,01,37,7.30
2015,09,29,01,38,7.30
2015,09,29,01,39,7.30
2015,09,29,01,40,7.30
2015,09,29,01,41,7.30
2015,09,29,01,42,7.30
2015,09,29,01,43,7.30
2015,09,29,01,44,7.30
2015,09,29,01,45,7.30
2015,09,29,01,46,7.30
2015,09,29,01,47,7.30
2015,09,29,01,48,7.30
2015,09,29,01,49,7.30
2015,09,29,01,50,7.20
2015,09,29,01,51,7.20
2015,09,29,01,52,7.20
2015,09,29,01,53,7.20
2015,09,29,01,54,7.20
2015,09,29,01,55,7.20
2015,09,29,01,56,7.20
2015,09,29,01,57,7.20
2015,09,29,01,58,7.20
2015,09,29,01,59,7.20
2015,09,29,02,00,7.20
2015,09,29,02,01,7.20
2015,09,29,02,02,7.20
2015,09,29,02,03,7.20
2015,09,29,02,04,7.20
2015,09,29,02,05,7.20
2015,09,29,02,06,7.20
2015,09,29,02,07,7.20
2015,09,29,02,08,7.20
2015,09,29,02,09,7.20
2015,09,29,02,10,7.20
2015,09,29,02,11,7.20
2015,09,29,02,12,7.20
2015,09,29,02,13,7.20
2015,09,29,02,14,7.20
2015,09,29,02,15,7.20
2015,09,29,02,16,7.10
2015,09,29,02,17,7.10
2015,09,29,02,18,7.10
2015,09,29,02,19,7.10
2015,09,29,02,20,7.10
2015,09,29,02,21,7.10
2015,09,29,02,22,7.10
2015,09,29,02,23,7.10
2015,09,29,02,24,7.10
2015,09,29,02,25,7.10
2015,09,29,02,26,7.10
2015,09,29,02,27,7.10
2015,09,29,02,28,7.10
2015,09,29,02,29,7.10
2015,09,29,02,30,7.00
2015,09,29,02,31,7.00
2015,09,29,02,32,6.90
2015,09,29,02,33,6.90
2015,09,29,02,34,6.90
2015,09,29,02,35,6.90
2015,09,29,02,36,6.90
2015,09,29,02,37,6.80
2015,09,29,02,38,6.80
2015,09,29,02,39,6.80
2015,09,29,02,40,6.80
2015,09,29,02,41,6.80
2015,09,29,02,42,6.80
2015,09,29,02,43,6.70
2015,09,29,02,44,6.70
2015,09,29,02,45,6.70
2015,09,29,02,46,6.70
2015,09,29,02,47,6.70
2015,09,29,02,48,6.70
2015,09,29,02,49,6.70
2015,09,29,02,50,6.70
2015,09,29,02,51,6.70
2015,09,29,02,52,6.70
2015,09,29,02,53,6.70
2015,09,29,02,54,6.70
2015,09,29,02,55,6.70
2015,09,29,02,56,6.70
2015,09,29,02,57,6.60
2015,09,29,02,58,6.70
2015,09,29,02,59,6.70
2015,09,29,03,00,6.70
2015,09,29,03,01,6.70
2015,09,29,03,02,6.70
2015,09,29,03,03,6.70
2015,09,29,03,04,6.70
2015,09,29,03,05,6.60
2015,09,29,03,06,6.60
2015,09,29,03,07,6.60
2015,09,29,03,08,6.60
2015,09,29,03,09,6.60
2015,09,29,03,10,6.60
2015,09,29,03,11,6.60
2015,09,29,03,12,6.60
2015,09,29,03,13,6.60
2015,09,29,03,14,6.60
2015,09,29,03,15,6.50
2015,09,29,03,16,6.50
2015,09,29,03,17,6.50
2015,09,29,03,18,6.50
2015,09,29,03,19,6.50
2015,09,29,03,20,6.50
2015,09,29,03,21,6.50
2015,09,29,03,22,6.50
2015,09,29,03,23,6.60
2015,09,29,03,24,6.60
2015,09,29,03,25,6.60
2015,09,29,03,26,6.60
2015,09,29,03,27,6.60
2015,09,29,03,28,6.60
2015,09,29,03,29,6.60
2015,09,29,03,30,6.60
2015,09,29,03,31,6.60
2015,09,29,03,32,6.60
2015,09,29,03,33,6.60
2015,09,29,03,34,6.60
2015,09,29,03,35,6.60
2015,09,29,03,36,6.50
2015,09,29,03,37,6.50
2015,09,29,03,38,6.50
2015,09,29,03,39,6.40
2015,09,29,03,40,6.40
2015,09,29,03,41,6.40
2015,09,29,03,42,6.40
2015,09,29,03,43,6.40
2015,09,29,03,44,6.30
2015,09,29,03,45,6.30
2015,09,29,03,46,6.30
2015,09,29,03,47,6.30
2015,09,29,03,48,6.20
2015,09,29,03,49,6.20
2015,09,29,03,50,6.20
2015,09,29,03,51,6.20
2015,09,29,03,52,6.20
2015,09,29,03,53,6.20
2015,09,29,03,54,6.20
2015,09,29,03,55,6.20
2015,09,29,03,56,6.20
2015,09,29,03,57,6.20
2015,09,29,03,58,6.20
2015,09,29,03,59,6.20
2015,09,29,04,00,6.20
2015,09,29,04,01,6.20
2015,09,29,04,02,6.20
2015,09,29,04,03,6.20
2015,09,29,04,04,6.20
2015,09,29,04,05,6.10
2015,09,29,04,06,6.10
2015,09,29,04,07,6.10
2015,09,29,04,08,6.10
2015,09,29,04,09,6.10
2015,09,29,04,10,6.00
2015,09,29,04,11,6.00
2015,09,29,04,12,6.00
2015,09,29,04,13,6.00
2015,09,29,04,14,6.00
2015,09,29,04,15,5.90
2015,09,29,04,16,5.90
2015,09,29,04,17,5.90
2015,09,29,04,18,5.90
2015,09,29,04,19,5.90
2015,09,29,04,20,5.90
2015,09,29,04,21,5.90
2015,09,29,04,22,5.90
2015,09,29,04,23,5.90
2015,09,29,04,24,6.00
2015,09,29,04,25,6.00
2015,09,29,04,26,6.00
2015,09,29,04,27,5.90
2015,09,29,04,28,6.00
2015,09,29,04,29,6.00
2015,09,29,04,30,6.00
2015,09,29,04,31,6.00
2015,09,29,04,32,6.00
2015,09,29,04,33,6.00
2015,09,29,04,34,6.00
2015,09,29,04,35,6.00
2015,09,29,04,36,6.00
2015,09,29,04,37,6.00
2015,09,29,04,38,6.00
2015,09,29,04,39,6.00
2015,09,29,04,40,5.90
2015,09,29,04,41,5.90
2015,09,29,04,42,5.90
2015,09,29,04,43,5.90
2015,09,29,04,44,5.90
2015,09,29,04,45,5.90
2015,09,29,04,46,5.90
2015,09,29,04,47,5.90
2015,09,29,04,48,5.90
2015,09,29,04,49,5.80
2015,09,29,04,50,5.80
2015,09,29,04,51,5.80
2015,09,29,04,52,5.80
2015,09,29,04,53,5.80
2015,09,29,04,54,5.80
2015,09,29,04,55,5.80
2015,09,29,04,56,5.80
2015,09,29,04,57,5.80
2015,09,29,04,58,5.70
2015,09,29,04,59,5.70
2015,09,29,05,00,5.70
2015,09,29,05,01,5.70
2015,09,29,05,02,5.70
2015,09,29,05,03,5.70
2015,09,29,05,04,5.70
2015,09,29,05,05,5.70
2015,09,29,05,06,5.70
2015,09,29,05,07,5.70
2015,09,29,05,08,5.70
2015,09,29,05,09,5.80
2015,09,29,05,10,5.80
2015,09,29,05,11,5.80
2015,09,29,05,12,5.80
2015,09,29,05,13,5.80
2015,09,29,05,14,5.80
2015,09,29,05,15,5.80
2015,09,29,05,16,5.80
2015,09,29,05,17,5.80
2015,09,29,05,18,5.80
2015,09,29,05,19,5.80
2015,09,29,05,20,5.80
2015,09,29,05,21,5.80
2015,09,29,05,22,5.80
2015,09,29,05,23,5.80
2015,09,29,05,24,5.80
2015,09,29,05,25,5.70
2015,09,29,05,26,5.70
2015,09,29,05,27,5.70
2015,09,29,05,28,5.70
2015,09,29,05,29,5.70
2015,09,29,05,30,5.70
2015,09,29,05,31,5.70
2015,09,29,05,32,5.60
2015,09,29,05,33,5.60
2015,09,29,05,34,5.60
2015,09,29,05,35,5.70
2015,09,29,05,36,5.70
2015,09,29,05,37,5.70
2015,09,29,05,38,5.70
2015,09,29,05,39,5.70
2015,09,29,05,40,5.70
2015,09,29,05,41,5.70
2015,09,29,05,42,5.70
2015,09,29,05,43,5.60
2015,09,29,05,44,5.60
2015,09,29,05,45,5.60
2015,09,29,05,46,5.60
2015,09,29,05,47,5.60
2015,09,29,05,48,5.60
2015,09,29,05,49,5.60
2015,09,29,05,50,5.60
2015,09,29,05,51,5.60
2015,09,29,05,52,5.60
2015,09,29,05,53,5.60
2015,09,29,05,54,5.60
2015,09,29,05,55,5.60
2015,09,29,05,56,5.60
2015,09,29,05,57,5.60
2015,09,29,05,58,5.50
2015,09,29,05,59,5.50
2015,09,29,06,00,5.40
2015,09,29,06,01,5.40
2015,09,29,06,02,5.40
2015,09,29,06,03,5.30
2015,09,29,06,04,5.30
2015,09,29,06,05,5.30
2015,09,29,06,06,5.30
2015,09,29,06,07,5.30
2015,09,29,06,08,5.30
2015,09,29,06,09,5.30
2015,09,29,06,10,5.30
2015,09,29,06,11,5.30
2015,09,29,06,12,5.30
2015,09,29,06,13,5.30
2015,09,29,06,14,5.30
2015,09,29,06,15,5.30
2015,09,29,06,16,5.30
2015,09,29,06,17,5.30
2015,09,29,06,18,5.30
2015,09,29,06,19,5.30
2015,09,29,06,20,5.30
2015,09,29,06,21,5.30
2015,09,29,06,22,5.30
2015,09,29,06,23,5.30
2015,09,29,06,24,5.30
2015,09,29,06,25,5.30
2015,09,29,06,26,5.20
2015,09,29,06,27,5.20
2015,09,29,06,28,5.20
2015,09,29,06,29,5.20
2015,09,29,06,30,5.20
2015,09,29,06,31,5.20
2015,09,29,06,32,5.10
2015,09,29,06,33,5.10
2015,09,29,06,34,5.10
2015,09,29,06,35,5.10
2015,09,29,06,36,5.10
2015,09,29,06,37,5.00
2015,09,29,06,38,5.00
2015,09,29,06,39,5.00
2015,09,29,06,40,4.90
2015,09,29,06,41,4.90
2015,09,29,06,42,4.90
2015,09,29,06,43,4.90
2015,09,29,06,44,4.90
2015,09,29,06,45,5.00
2015,09,29,06,46,5.00
2015,09,29,06,47,5.00
2015,09,29,06,48,5.10
2015,09,29,06,49,5.10
2015,09,29,06,50,5.10
2015,09,29,06,51,5.10
2015,09,29,06,52,5.10
2015,09,29,06,53,5.10
2015,09,29,06,54,5.10
2015,09,29,06,55,5.10
2015,09,29,06,56,5.10
2015,09,29,06,57,5.10
2015,09,29,06,58,5.00
2015,09,29,06,59,5.00
2015,09,29,07,00,4.90
2015,09,29,07,01,4.90
2015,09,29,07,02,4.90
2015,09,29,07,03,4.90
2015,09,29,07,04,4.90
2015,09,29,07,05,4.90
2015,09,29,07,06,4.90
2015,09,29,07,07,4.90
2015,09,29,07,08,4.90
2015,09,29,07,09,4.90
2015,09,29,07,10,4.90
2015,09,29,07,11,4.90
2015,09,29,07,12,4.90
2015,09,29,07,13,4.90
2015,09,29,07,14,4.90
2015,09,29,07,15,4.90
2015,09,29,07,16,4.90
2015,09,29,07,17,4.90
2015,09,29,07,18,4.90
2015,09,29,07,19,4.90
2015,09,29,07,20,4.80
2015,09,29,07,21,4.80
2015,09,29,07,22,4.80
2015,09,29,07,23,4.80
2015,09,29,07,24,4.80
2015,09,29,07,25,4.80
2015,09,29,07,26,4.80
2015,09,29,07,27,4.80
2015,09,29,07,28,4.80
2015,09,29,07,29,4.80
2015,09,29,07,30,4.80
2015,09,29,07,31,4.80
2015,09,29,07,32,4.80
2015,09,29,07,33,4.80
2015,09,29,07,34,4.80
2015,09,29,07,35,4.80
2015,09,29,07,36,4.80
2015,09,29,07,37,4.90
2015,09,29,07,38,4.90
2015,09,29,07,39,5.00
2015,09,29,07,40,5.00
2015,09,29,07,41,5.00
2015,09,29,07,42,5.10
2015,09,29,07,43,5.10
2015,09,29,07,44,5.10
2015,09,29,07,45,5.10
2015,09,29,07,46,5.10
2015,09,29,07,47,5.20
2015,09,29,07,48,5.20
2015,09,29,07,49,5.20
2015,09,29,07,50,5.30
2015,09,29,07,51,5.30
2015,09,29,07,52,5.30
2015,09,29,07,53,5.30
2015,09,29,07,54,5.30
2015,09,29,07,55,5.40
2015,09,29,07,56,5.40
2015,09,29,07,57,5.50
2015,09,29,07,58,5.50
2015,09,29,07,59,5.50
2015,09,29,08,00,5.60
2015,09,29,08,01,5.60
2015,09,29,08,02,5.60
2015,09,29,08,03,5.60
2015,09,29,08,04,5.60
2015,09,29,08,05,5.70
2015,09,29,08,06,5.70
2015,09,29,08,07,5.70
2015,09,29,08,08,5.70
2015,09,29,08,09,5.70
2015,09,29,08,10,5.70
2015,09,29,08,11,5.80
2015,09,29,08,12,5.80
2015,09,29,08,13,5.80
2015,09,29,08,14,5.90
2015,09,29,08,15,5.90
2015,09,29,08,16,6.00
2015,09,29,08,17,6.00
2015,09,29,08,18,6.10
2015,09,29,08,19,6.10
2015,09,29,08,20,6.20
2015,09,29,08,21,6.20
2015,09,29,08,22,6.30
2015,09,29,08,23,6.30
2015,09,29,08,24,6.40
2015,09,29,08,25,6.40
2015,09,29,08,26,6.40
2015,09,29,08,27,6.50
2015,09,29,08,28,6.60
2015,09,29,08,29,6.60
2015,09,29,08,30,6.70
2015,09,29,08,31,6.80
2015,09,29,08,32,6.90
2015,09,29,08,33,6.90
2015,09,29,08,34,7.00
2015,09,29,08,35,7.10
2015,09,29,08,36,7.10
2015,09,29,08,37,7.10
2015,09,29,08,38,7.20
2015,09,29,08,39,7.20
2015,09,29,08,40,7.20
2015,09,29,08,41,7.20
2015,09,29,08,42,7.30
2015,09,29,08,43,7.30
2015,09,29,08,44,7.30
2015,09,29,08,45,7.40
2015,09,29,08,46,7.50
2015,09,29,08,47,7.50
2015,09,29,08,48,7.60
2015,09,29,08,49,7.70
2015,09,29,08,50,7.70
2015,09,29,08,51,7.70
2015,09,29,08,52,7.70
2015,09,29,08,53,7.70
2015,09,29,08,54,7.80
2015,09,29,08,55,7.80
2015,09,29,08,56,7.80
2015,09,29,08,57,7.90
2015,09,29,08,58,7.90
2015,09,29,08,59,8.00
2015,09,29,09,00,8.00
2015,09,29,09,01,8.10
2015,09,29,09,02,8.10
2015,09,29,09,03,8.20
2015,09,29,09,04,8.20
2015,09,29,09,05,8.30
2015,09,29,09,06,8.30
2015,09,29,09,07,8.40
2015,09,29,09,08,8.50
2015,09,29,09,09,8.60
2015,09,29,09,10,8.60
2015,09,29,09,11,8.70
2015,09,29,09,12,8.70
2015,09,29,09,13,8.80
2015,09,29,09,14,8.80
2015,09,29,09,15,8.90
2015,09,29,09,16,9.00
2015,09,29,09,17,9.00
2015,09,29,09,18,9.10
2015,09,29,09,19,9.10
2015,09,29,09,20,9.20
2015,09,29,09,21,9.20
2015,09,29,09,22,9.30
2015,09,29,09,23,9.40
2015,09,29,09,24,9.40
2015,09,29,09,25,9.50
2015,09,29,09,26,9.60
2015,09,29,09,27,9.70
2015,09,29,09,28,9.80
2015,09,29,09,29,9.80
2015,09,29,09,30,9.90
2015,09,29,09,31,10.00
2015,09,29,09,32,10.10
2015,09,29,09,33,10.20
2015,09,29,09,34,10.20
2015,09,29,09,35,10.30
2015,09,29,09,36,10.40
2015,09,29,09,37,10.40
2015,09,29,09,38,10.50
2015,09,29,09,39,10.60
2015,09,29,09,40,10.60
2015,09,29,09,41,10.70
2015,09,29,09,42,10.80
2015,09,29,09,43,10.90
2015,09,29,09,44,10.90
2015,09,29,09,45,11.00
2015,09,29,09,46,11.10
2015,09,29,09,47,11.20
2015,09,29,09,48,11.30
2015,09,29,09,49,11.30
2015,09,29,09,50,11.40
2015,09,29,09,51,11.50
2015,09,29,09,52,11.60
2015,09,29,09,53,11.70
2015,09,29,09,54,11.80
2015,09,29,09,55,11.90
2015,09,29,09,56,12.00
2015,09,29,09,57,12.10
2015,09,29,09,58,12.20
2015,09,29,09,59,12.30
2015,09,29,10,00,12.40
2015,09,29,10,01,12.50
2015,09,29,10,02,12.60
2015,09,29,10,03,12.80
2015,09,29,10,04,12.90
2015,09,29,10,05,13.00
2015,09,29,10,06,13.10
2015,09,29,10,07,13.20
2015,09,29,10,08,13.30
2015,09,29,10,09,13.40
2015,09,29,10,10,13.50
2015,09,29,10,11,13.60
2015,09,29,10,12,13.70
2015,09,29,10,13,13.80
2015,09,29,10,14,13.80
2015,09,29,10,15,13.90
2015,09,29,10,16,13.90
2015,09,29,10,17,14.00
2015,09,29,10,18,14.10
2015,09,29,10,19,14.10
2015,09,29,10,20,14.20
2015,09,29,10,21,14.30
2015,09,29,10,22,14.40
2015,09,29,10,23,14.50
2015,09,29,10,24,14.60
2015,09,29,10,25,14.80
2015,09,29,10,26,14.90
2015,09,29,10,27,15.00
2015,09,29,10,28,15.10
2015,09,29,10,29,15.20
2015,09,29,10,30,15.30
2015,09,29,10,31,15.30
2015,09,29,10,32,15.40
2015,09,29,10,33,15.50
2015,09,29,10,34,15.60
2015,09,29,10,35,15.70
2015,09,29,10,36,15.80
2015,09,29,10,37,15.90
2015,09,29,10,38,16.00
2015,09,29,10,39,16.10
2015,09,29,10,40,16.20
2015,09,29,10,41,16.20
2015,09,29,10,42,16.30
2015,09,29,10,43,16.30
2015,09,29,10,44,16.30
2015,09,29,10,45,16.40
2015,09,29,10,46,16.50
2015,09,29,10,47,16.60
2015,09,29,10,48,16.60
2015,09,29,10,49,16.60
2015,09,29,10,50,16.70
2015,09,29,10,51,16.70
2015,09,29,10,52,16.80
2015,09,29,10,53,16.80
2015,09,29,10,54,16.80
2015,09,29,10,55,16.80
2015,09,29,10,56,16.80
2015,09,29,10,57,16.80
2015,09,29,10,58,16.80
2015,09,29,10,59,16.90
2015,09,29,11,00,17.00
2015,09,29,11,01,17.10
2015,09,29,11,02,17.10
2015,09,29,11,03,17.20
2015,09,29,11,04,17.20
2015,09,29,11,05,17.30
2015,09,29,11,06,17.30
2015,09,29,11,07,17.30
2015,09,29,11,08,17.30
2015,09,29,11,09,17.30
2015,09,29,11,10,17.40
2015,09,29,11,11,17.40
2015,09,29,11,12,17.40
2015,09,29,11,13,17.40
2015,09,29,11,14,17.40
2015,09,29,11,15,17.40
2015,09,29,11,16,17.40
2015,09,29,11,17,17.40
2015,09,29,11,18,17.40
2015,09,29,11,19,17.40
2015,09,29,11,20,17.40
2015,09,29,11,21,17.40
2015,09,29,11,22,17.40
2015,09,29,11,23,17.40
2015,09,29,11,24,17.50
2015,09,29,11,25,17.50
2015,09,29,11,26,17.60
2015,09,29,11,27,17.70
2015,09,29,11,28,17.80
2015,09,29,11,29,17.80
2015,09,29,11,30,17.80
2015,09,29,11,31,17.80
2015,09,29,11,32,17.80
2015,09,29,11,33,17.90
2015,09,29,11,34,17.90
2015,09,29,11,35,18.00
2015,09,29,11,36,18.10
2015,09,29,11,37,18.20
2015,09,29,11,38,18.20
2015,09,29,11,39,18.20
2015,09,29,11,40,18.20
2015,09,29,11,41,18.30
2015,09,29,11,42,18.30
2015,09,29,11,43,18.30
2015,09,29,11,44,18.40
2015,09,29,11,45,18.50
2015,09,29,11,46,18.70
2015,09,29,11,47,18.80
2015,09,29,11,48,18.90
2015,09,29,11,49,19.00
2015,09,29,11,50,19.00
2015,09,29,11,51,19.00
2015,09,29,11,52,19.00
2015,09,29,11,53,19.00
2015,09,29,11,54,19.10
2015,09,29,11,55,19.10
2015,09,29,11,56,19.10
2015,09,29,11,57,19.10
2015,09,29,11,58,19.10
2015,09,29,11,59,19.20
2015,09,29,12,00,19.30
2015,09,29,12,01,19.40
2015,09,29,12,02,19.50
2015,09,29,12,03,19.60
2015,09,29,12,04,19.70
2015,09,29,12,05,19.60
2015,09,29,12,06,19.60
2015,09,29,12,07,19.70
2015,09,29,12,08,19.70
2015,09,29,12,09,19.80
2015,09,29,12,10,19.80
2015,09,29,12,11,19.80
2015,09,29,12,12,19.80
2015,09,29,12,13,19.80
2015,09,29,12,14,19.80
2015,09,29,12,15,19.90
2015,09,29,12,16,19.90
2015,09,29,12,17,20.00
2015,09,29,12,18,20.10
2015,09,29,12,19,20.20
2015,09,29,12,20,20.30
2015,09,29,12,21,20.40
2015,09,29,12,22,20.40
2015,09,29,12,23,20.50
2015,09,29,12,24,20.50
2015,09,29,12,25,20.50
2015,09,29,12,26,20.50
2015,09,29,12,27,20.50
2015,09,29,12,28,20.50
2015,09,29,12,29,20.50
2015,09,29,12,30,20.50
2015,09,29,12,31,20.40
2015,09,29,12,32,20.30
2015,09,29,12,33,20.30
2015,09,29,12,34,20.20
2015,09,29,12,35,20.20
2015,09,29,12,36,20.30
2015,09,29,12,37,20.30
2015,09,29,12,38,20.30
2015,09,29,12,39,20.40
2015,09,29,12,40,20.40
2015,09,29,12,41,20.50
2015,09,29,12,42,20.60
2015,09,29,12,43,20.60
2015,09,29,12,44,20.60
2015,09,29,12,45,20.60
2015,09,29,12,46,20.50
2015,09,29,12,47,20.60
2015,09,29,12,48,20.60
2015,09,29,12,49,20.60
2015,09,29,12,50,20.50
2015,09,29,12,51,20.40
2015,09,29,12,52,20.40
2015,09,29,12,53,20.30
2015,09,29,12,54,20.20
2015,09,29,12,55,20.10
2015,09,29,12,56,20.10
2015,09,29,12,57,20.20
2015,09,29,12,58,20.10
2015,09,29,12,59,20.10
2015,09,29,13,00,20.10
2015,09,29,13,01,20.10
2015,09,29,13,02,20.10
2015,09,29,13,03,20.00
2015,09,29,13,04,20.00
2015,09,29,13,05,20.10
2015,09,29,13,06,20.20
2015,09,29,13,07,20.30
2015,09,29,13,08,20.30
2015,09,29,13,09,20.30
2015,09,29,13,10,20.30
2015,09,29,13,11,20.40
2015,09,29,13,12,20.40
2015,09,29,13,13,20.50
2015,09,29,13,14,20.60
2015,09,29,13,15,20.60
2015,09,29,13,16,20.60
2015,09,29,13,17,20.60
2015,09,29,13,18,20.60
2015,09,29,13,19,20.70
2015,09,29,13,20,20.80
2015,09,29,13,21,20.90
2015,09,29,13,22,21.00
2015,09,29,13,23,21.00
2015,09,29,13,24,21.00
2015,09,29,13,25,20.90
2015,09,29,13,26,20.90
2015,09,29,13,27,20.90
2015,09,29,13,28,20.90
2015,09,29,13,29,20.90
2015,09,29,13,30,20.90
2015,09,29,13,31,21.00
2015,09,29,13,32,21.10
2015,09,29,13,33,21.10
2015,09,29,13,34,21.00
2015,09,29,13,35,20.90
2015,09,29,13,36,20.90
2015,09,29,13,37,20.90
2015,09,29,13,38,20.90
2015,09,29,13,39,21.00
2015,09,29,13,40,21.10
2015,09,29,13,41,21.20
2015,09,29,13,42,21.30
2015,09,29,13,43,21.50
2015,09,29,13,44,21.60
2015,09,29,13,45,21.80
2015,09,29,13,46,21.90
2015,09,29,13,47,21.90
2015,09,29,13,48,21.90
2015,09,29,13,49,22.00
2015,09,29,13,50,22.10
2015,09,29,13,51,22.10
2015,09,29,13,52,22.00
2015,09,29,13,53,21.80
2015,09,29,13,54,21.80
2015,09,29,13,55,21.70
2015,09,29,13,56,21.70
2015,09,29,13,57,21.70
2015,09,29,13,58,21.70
2015,09,29,13,59,21.70
2015,09,29,14,00,21.80
2015,09,29,14,01,21.80
2015,09,29,14,02,21.80
2015,09,29,14,03,21.90
2015,09,29,14,04,21.90
2015,09,29,14,05,21.90
2015,09,29,14,06,21.90
2015,09,29,14,07,21.90
2015,09,29,14,08,21.90
2015,09,29,14,09,21.90
2015,09,29,14,10,22.00
2015,09,29,14,11,22.00
2015,09,29,14,12,22.10
2015,09,29,14,13,22.00
2015,09,29,14,14,21.90
2015,09,29,14,15,21.90
2015,09,29,14,16,21.80
2015,09,29,14,17,21.80
2015,09,29,14,18,21.70
2015,09,29,14,19,21.70
2015,09,29,14,20,21.80
2015,09,29,14,21,21.80
2015,09,29,14,22,21.90
2015,09,29,14,23,22.00
2015,09,29,14,24,22.20
2015,09,29,14,25,22.30
2015,09,29,14,26,22.40
2015,09,29,14,27,22.50
2015,09,29,14,28,22.50
2015,09,29,14,29,22.60
2015,09,29,14,30,22.50
2015,09,29,14,31,22.50
2015,09,29,14,32,22.40
2015,09,29,14,33,22.40
2015,09,29,14,34,22.40
2015,09,29,14,35,22.30
2015,09,29,14,36,22.30
2015,09,29,14,37,22.30
2015,09,29,14,38,22.30
2015,09,29,14,39,22.30
2015,09,29,14,40,22.20
2015,09,29,14,41,22.20
2015,09,29,14,42,22.30
2015,09,29,14,43,22.30
2015,09,29,14,44,22.40
2015,09,29,14,45,22.50
2015,09,29,14,46,22.50
2015,09,29,14,47,22.60
2015,09,29,14,48,22.60
2015,09,29,14,49,22.60
2015,09,29,14,50,22.60
2015,09,29,14,51,22.60
2015,09,29,14,52,22.60
2015,09,29,14,53,22.60
2015,09,29,14,54,22.60
2015,09,29,14,55,22.60
2015,09,29,14,56,22.60
2015,09,29,14,57,22.60
2015,09,29,14,58,22.60
2015,09,29,14,59,22.60
2015,09,29,15,00,22.60
2015,09,29,15,01,22.60
2015,09,29,15,02,22.60
2015,09,29,15,03,22.50
2015,09,29,15,04,22.40
2015,09,29,15,05,22.40
2015,09,29,15,06,22.40
2015,09,29,15,07,22.40
2015,09,29,15,08,22.40
2015,09,29,15,09,22.50
2015,09,29,15,10,22.60
2015,09,29,15,11,22.70
2015,09,29,15,12,22.70
2015,09,29,15,13,22.70
2015,09,29,15,14,22.80
2015,09,29,15,15,22.80
2015,09,29,15,16,22.80
2015,09,29,15,17,22.80
2015,09,29,15,18,22.80
2015,09,29,15,19,22.80
2015,09,29,15,20,22.70
2015,09,29,15,21,22.60
2015,09,29,15,22,22.60
2015,09,29,15,23,22.60
2015,09,29,15,24,22.70
2015,09,29,15,25,22.70
2015,09,29,15,26,22.70
2015,09,29,15,27,22.80
2015,09,29,15,28,22.80
2015,09,29,15,29,22.70
2015,09,29,15,30,22.70
2015,09,29,15,31,22.70
2015,09,29,15,32,22.70
2015,09,29,15,33,22.70
2015,09,29,15,34,22.70
2015,09,29,15,35,22.70
2015,09,29,15,36,22.70
2015,09,29,15,37,22.70
2015,09,29,15,38,22.80
2015,09,29,15,39,22.80
2015,09,29,15,40,22.80
2015,09,29,15,41,22.80
2015,09,29,15,42,22.80
2015,09,29,15,43,22.80
2015,09,29,15,44,22.70
2015,09,29,15,45,22.70
2015,09,29,15,46,22.60
2015,09,29,15,47,22.70
2015,09,29,15,48,22.70
2015,09,29,15,49,22.80
2015,09,29,15,50,22.80
2015,09,29,15,51,22.80
2015,09,29,15,52,22.80
2015,09,29,15,53,22.80
2015,09,29,15,54,22.80
2015,09,29,15,55,22.70
2015,09,29,15,56,22.70
2015,09,29,15,57,22.70
2015,09,29,15,58,22.70
2015,09,29,15,59,22.70
2015,09,29,16,00,22.60
2015,09,29,16,01,22.60
2015,09,29,16,02,22.60
2015,09,29,16,03,22.60
2015,09,29,16,04,22.60
2015,09,29,16,05,22.60
2015,09,29,16,06,22.60
2015,09,29,16,07,22.50
2015,09,29,16,08,22.50
2015,09,29,16,09,22.40
2015,09,29,16,10,22.40
2015,09,29,16,11,22.40
2015,09,29,16,12,22.50
2015,09,29,16,13,22.50
2015,09,29,16,14,22.60
2015,09,29,16,15,22.60
2015,09,29,16,16,22.60
2015,09,29,16,17,22.60
2015,09,29,16,18,22.60
2015,09,29,16,19,22.60
2015,09,29,16,20,22.50
2015,09,29,16,21,22.40
2015,09,29,16,22,22.40
2015,09,29,16,23,22.30
2015,09,29,16,24,22.20
2015,09,29,16,25,22.20
2015,09,29,16,26,22.20
2015,09,29,16,27,22.10
2015,09,29,16,28,22.10
2015,09,29,16,29,22.10
2015,09,29,16,30,22.10
2015,09,29,16,31,22.10
2015,09,29,16,32,22.20
2015,09,29,16,33,22.20
2015,09,29,16,34,22.30
2015,09,29,16,35,22.30
2015,09,29,16,36,22.40
2015,09,29,16,37,22.50
2015,09,29,16,38,22.50
2015,09,29,16,39,22.60
2015,09,29,16,40,22.60
2015,09,29,16,41,22.50
2015,09,29,16,42,22.40
2015,09,29,16,43,22.40
2015,09,29,16,44,22.30
2015,09,29,16,45,22.30
2015,09,29,16,46,22.30
2015,09,29,16,47,22.30
2015,09,29,16,48,22.30
2015,09,29,16,49,22.20
2015,09,29,16,50,22.20
2015,09,29,16,51,22.20
2015,09,29,16,52,22.10
2015,09,29,16,53,22.10
2015,09,29,16,54,22.00
2015,09,29,16,55,22.00
2015,09,29,16,56,21.90
2015,09,29,16,57,21.90
2015,09,29,16,58,21.80
2015,09,29,16,59,21.80
2015,09,29,17,00,21.80
2015,09,29,17,01,21.80
2015,09,29,17,02,21.80
2015,09,29,17,03,21.80
2015,09,29,17,04,21.80
2015,09,29,17,05,21.80
2015,09,29,17,06,21.80
2015,09,29,17,07,21.80
2015,09,29,17,08,21.70
2015,09,29,17,09,21.70
2015,09,29,17,10,21.60
2015,09,29,17,11,21.60
2015,09,29,17,12,21.60
2015,09,29,17,13,21.60
2015,09,29,17,14,21.60
2015,09,29,17,15,21.50
2015,09,29,17,16,21.50
2015,09,29,17,17,21.40
2015,09,29,17,18,21.40
2015,09,29,17,19,21.40
2015,09,29,17,20,21.30
2015,09,29,17,21,21.30
2015,09,29,17,22,21.30
2015,09,29,17,23,21.20
2015,09,29,17,24,21.20
2015,09,29,17,25,21.10
2015,09,29,17,26,21.10
2015,09,29,17,27,21.10
2015,09,29,17,28,21.00
2015,09,29,17,29,21.00
2015,09,29,17,30,21.00
2015,09,29,17,31,20.90
2015,09,29,17,32,20.90
2015,09,29,17,33,20.90
2015,09,29,17,34,20.90
2015,09,29,17,35,20.80
2015,09,29,17,36,20.80
2015,09,29,17,37,20.80
2015,09,29,17,38,20.70
2015,09,29,17,39,20.70
2015,09,29,17,40,20.70
2015,09,29,17,41,20.70
2015,09,29,17,42,20.70
2015,09,29,17,43,20.70
2015,09,29,17,44,20.70